Regional Weather Roundup
Issued by NWS

Home | Current Version | Previous Version | Text Only | Print | Product List | Glossary Off
Versions: 1 2 3 4 5 6 7 8 9 10 11 12 13 14 15 16 17 18 19 20 21 22 23 24 25 26 27 28 29 30 31 32 33 34 35 36 37 38 39 40 41 42 43 44 45 46 47 48 49 50

000
ASUS43 KDTX 250201
RWRMI
MICHIGAN HOURLY REGIONAL WEATHER ROUNDUP
NATIONAL WEATHER SERVICE DETROIT/PONTIAC MI
900 PM EST SAT FEB 24 2018

NOTE: "FAIR" INDICATES FEW OR NO CLOUDS BELOW 12,000 FEET WITH NO
SIGNIFICANT WEATHER AND/OR OBSTRUCTION TO VISIBILITY.

MIZ047>049-052>055-059>063-066>070-074>076-081>083-250300-
SOUTHEAST LOWER MICHIGAN

CITY           SKY/WX    TMP DP  RH WIND       PRES   REMARKS
ADRIAN         LGT RAIN  36  31  82 E15G21    29.92F WCI  27
ALMA           CLOUDY    34  31  91 E16       29.91F WCI  23
ANN ARBOR      CLOUDY    37  32  82 E14G22    29.92F WCI  28
BAD AXE        FAIR      31  28  87 E6        30.01F WCI  25
CARO           FAIR      32  28  87 E9        29.98F WCI  24
DETROIT CITY   CLOUDY    36  30  79 E13       29.97F WCI  27
DETROIT        CLOUDY    38  32  79 E13G22    29.95F WCI  30
FLINT          CLOUDY    35  31  85 E13       29.95F WCI  26
GROSSE ILE     CLOUDY    37  32  85 E12       29.94F WCI  29
HILLSDALE      LGT SNOW  34  32  93 E20G26    29.86F WCI  22
HOWELL         CLOUDY    37  33  85 E13G22    29.91F WCI  28

CITY           SKY/WX    TMP DP  RH WIND       PRES   REMARKS
JACKSON        CLOUDY    37  33  85 E17G28    29.87F WCI  27
LAMBERTVILLE   CLOUDY    35  32  88 E7        29.93F WCI  29
LANSING        CLOUDY    37  32  82 E14       29.89F WCI  28
LAPEER         CLOUDY    33  30  88 E6        29.98F WCI  27
MASON          CLOUDY    38  31  76 E13G22    29.89F WCI  30
MONROE         CLOUDY    36  31  84 E16G25    29.93F WCI  26
MT. CLEMENS    CLOUDY    34  34 100 E7        29.96F WCI  28
PONTIAC        CLOUDY    35  32  88 E14G22    29.93F WCI  26
PORT HOPE        N/A     32  29  88 E15       30.01F WCI  22
PORT HURON     FAIR      36  30  80 E9        29.99F WCI  29
TRI CITIES     CLOUDY    32  27  81 E13       29.97F WCI  22
MIDLAND        CLOUDY    32  28  83 E12G18    29.96F WCI  23
TROY           CLOUDY    38  32  80 E9G17     29.98F WCI  31
SAGINAW HB     CLOUDY    32  30  93 E9        29.97F WCI  24
$$
MIZ043>046-050>051-056>058-064>065-071>073-077>080-250300-
SOUTHWEST LOWER MICHIGAN

CITY           SKY/WX    TMP DP  RH WIND       PRES   REMARKS
BATTLE CREEK   CLOUDY    38  34  85 E14       29.83F WCI  30
BENTON HARBOR  CLOUDY    41  35  79 SE20G26   29.73F
BIG RAPIDS     CLOUDY    32  27  80 E17G23    29.84F WCI  21
COLDWATER      LGT RAIN  36  35  95 E13G22    29.84F WCI  28
FREMONT        CLOUDY    35  26  69 E15G24    29.78F WCI  25
HOLLAND        CLOUDY    40  34  79 E24G33    29.75F WCI  29
GRAND RAPIDS   CLOUDY    38  32  79 E21       29.82F WCI  28
IONIA          CLOUDY    37  32  82 E14G24    29.86F WCI  28
KALAMAZOO      CLOUDY    40  34  79 E9G20     29.81F WCI  34
LUDINGTON      CLOUDY    35  30  82 E21G26    29.76F WCI  23
MARSHALL       CLOUDY    37  34  90 E14G20    29.84F WCI  28
MOUNT PLEASANT CLOUDY    33  28  80 E13       29.92F WCI  24
MUSKEGON       CLOUDY    38  30  73 E21G33    29.75F WCI  28
SOUTH HAVEN    CLOUDY    41  36  81 SE17G24   29.74F
$$
MIZ016>042-250300-
NORTHERN LOWER MICHIGAN

CITY           SKY/WX    TMP DP  RH WIND       PRES   REMARKS
ALPENA         CLOUDY    31  27  85 E13       30.03F WCI  21
BEAVER ISLAND  CLOUDY    32  26  77 E18G26    29.90F WCI  20
BELLAIRE       CLOUDY    34  26  74 E5G18     29.90F WCI  30
CADILLAC       CLOUDY    29  27  90 E22G29    29.85F WCI  16
CHARLEVOIX     CLOUDY    33  25  72 E16G22    29.92F WCI  23
FRANKFORT      CLOUDY    36  27  69 SE10G26   29.82F WCI  28
GAYLORD        CLOUDY    28  24  85 E12G20    29.91F WCI  18
GRAYLING       CLOUDY    29  24  82 E15       29.93F WCI  18
HARBOR SPRINGS CLOUDY    31  24  74 E16G25    29.94F WCI  20
HOUGHTON LAKE  CLOUDY    29  24  82 E15G22    29.95S WCI  18
MANISTEE       CLOUDY    34  27  75 E21G36    29.78F WCI  22
OSCODA         CLOUDY    32  26  78 E9        30.02F WCI  24
PELLSTON       CLOUDY    31  23  72 SE17G25   29.97F WCI  19
ROGERS CITY    CLOUDY    31  25  78 SE12      30.03F WCI  22
TRAVERSE CITY  CLOUDY    34  25  69 SE13G24   29.87F WCI  25
$$
MIZ007>008-015-250300-
EASTERN UPPER MICHIGAN

CITY           SKY/WX    TMP DP  RH WIND       PRES   REMARKS
KINROSS        CLOUDY    29  24  82 SE16      30.00F WCI  17
MACKINAC ISLAN CLOUDY    30  25  79 SE17G25   29.97F WCI  19
NEWBERRY       CLOUDY    29  22  76 E18G24    29.93F WCI  16
S. S. MARIE    CLOUDY    30  22  72 E8        30.02F WCI  22
MUNISING         N/A     32  23  69 SE12      29.85F WCI  23
$$
MIZ004>006-011>014-085-250300-
CENTRAL UPPER MICHIGAN

CITY           SKY/WX    TMP DP  RH WIND       PRES   REMARKS
MANISTIQUE     CLOUDY    30  26  85 E14G23    29.89F WCI  20
ESCANABA       CLOUDY    31  25  78 E12       29.84F WCI  22
MENOMINEE      CLOUDY    33  27  78 E15G23    29.78F WCI  23
SAWYER-GWINN   CLOUDY    28  19  69 SE9G16    29.83F WCI  20
$$
MIZ001>003-009>011-084-250300-
WESTERN UPPER MICHIGAN

CITY           SKY/WX    TMP DP  RH WIND       PRES   REMARKS
IRON MOUNTAIN  CLOUDY    30  22  72 E7        29.75F WCI  23
HOUGHTON       CLOUDY    29  23  78 E14G26    29.76F WCI  18
COPPER HARBOR    N/A     31  22  69 VRB6      29.84F WCI  25
IRONWOOD       FLURRIES  31  22  69 E18G25    29.60F WCI  19
$$

ABBREVIATIONS USED IN REMARKS
   TC - TEMPERATURE IN CELSIUS
  WCI - WIND CHILL INDEX
   HX - HEAT INDEX
  VSB - VISIBILITY




USA.gov is the U.S. government's official web portal to all federal, state and local government web resources and services.